Kaneohe, HI

4:58 AM HST on February 06, 2016 (GMT -1000)
Kaneohe Bay Marine Corps Air Facility

Weather History for PHNG - November, 2013

Change the Weather History Date:

Friday, November 22, 2013

  Actual Average Record
Temperature  
Mean Temperature 77 °F -  
Max Temperature 81 °F 77 °F 82 °F (2003)
Min Temperature 73 °F 70 °F 68 °F (2008)
Cooling Degree Days 12    
Growing Degree Days 27 (Base 50)    
Moisture  
Dew Point 67 °F    
Average Humidity 73    
Maximum Humidity 95    
Minimum Humidity 60    
Precipitation  
Precipitation 0.00 in - - ()
Sea Level Pressure  
Sea Level Pressure 30.00 in    
Wind  
Wind Speed 4 mph (North)    
Max Wind Speed 15 mph    
Max Gust Speed -    
Visibility 8 miles    
Events Rain    
Averages and records for this station are not official NWS values.
T = Trace of Precipitation, MM = Missing Value Source: NWS Daily Summary

Daily Weather History Graph

Daily Weather History Graph

Search for Another Location

Airport or City:

Trip Planner

Search our weather history database for the weather conditions in past years. The results will help you decide how hot, cold, wet, or windy it might be!

Date:

Astronomy

Nov. 22, 2013 Rise Set
Actual Time 6:46 AM HST 5:47 PM HST
Civil Twilight 6:23 AM HST 6:11 PM HST
Nautical Twilight 5:55 AM HST 6:38 PM HST
Astronomical Twilight 5:29 AM HST 7:05 PM HST
Moon 10:19 PM HST (11/22) 10:45 AM HST (11/22)
Length of Visible Light 11h 48m
Length of Day
11h 00m
Waning Gibbous, 76% of the Moon is Illuminated
Nov 22
Waning Gibbous
Nov 25
Last Quarter
Dec 2
New
Dec 9
First Quarter
Dec 16
Full

Hourly Weather History & Observations

Time (HST) Temp. Heat Index Dew Point Humidity Pressure Visibility Wind Dir Wind Speed Gust Speed Precip Events Conditions
12:57 AM 73.4 °F - 64.9 °F 75% 29.99 in 7.0 mi South 3.5 mph - N/A   Mostly Cloudy
1:04 AM - - - N/A% 30.00 in 4.0 mi Calm Calm - N/A   Haze
1:12 AM 73.4 °F - 71.6 °F 94% 30.00 in 6.2 mi Calm Calm - N/A   Mostly Cloudy
1:22 AM - - - N/A% - - North - - N/A   Unknown
1:57 AM 73.4 °F - 72.0 °F 95% 29.98 in 7.0 mi Calm Calm - N/A   Mostly Cloudy
2:57 AM 73.4 °F - 68.0 °F 83% 29.98 in 7.0 mi Calm Calm - N/A   Clear
3:57 AM 73.4 °F - 63.0 °F 70% 29.98 in 7.0 mi Calm Calm - N/A   Clear
4:57 AM 73.4 °F - 64.0 °F 72% 29.97 in 7.0 mi Calm Calm - N/A   Scattered Clouds
5:57 AM 73.4 °F - 64.0 °F 72% 29.99 in 7.0 mi Calm Calm - N/A   Clear
6:15 AM - - - N/A% - - North - - N/A   Unknown
6:57 AM 73.4 °F - 68.0 °F 83% 30.01 in 7.0 mi Calm Calm - N/A   Clear
7:57 AM 73.4 °F - 70.0 °F 89% 30.01 in 7.0 mi South 3.5 mph - N/A   Clear
8:57 AM 75.2 °F - 71.1 °F 87% 30.03 in 7.0 mi Calm Calm - N/A   Clear
9:57 AM 77.0 °F - 69.1 °F 76% 30.04 in 7.0 mi Variable 3.5 mph - N/A   Clear
10:45 AM - - - N/A% - - North - - N/A   Unknown
10:57 AM 81.5 °F 85.1 °F 70.0 °F 68% 30.02 in 7.0 mi Variable 5.8 mph - N/A   Scattered Clouds
11:57 AM 81.5 °F 85.1 °F 70.0 °F 68% 30.00 in 8.0 mi North 9.2 mph - N/A   Scattered Clouds
12:57 PM 81.5 °F 84.8 °F 69.1 °F 66% 29.98 in 8.0 mi North 9.2 mph - N/A   Scattered Clouds
1:57 PM 81.5 °F 84.2 °F 68.0 °F 63% 29.96 in 8.0 mi North 8.1 mph - N/A   Scattered Clouds
2:57 PM 81.5 °F 84.2 °F 68.0 °F 63% 29.96 in 8.0 mi North 11.5 mph - N/A   Scattered Clouds
3:57 PM 81.5 °F 84.2 °F 68.0 °F 63% 29.96 in 8.0 mi North 11.5 mph - 0.00 in Rain Light Rain
4:57 PM 78.8 °F - 64.0 °F 60% 29.97 in 10.0 mi North 10.4 mph - 0.00 in   Mostly Cloudy
5:57 PM 79.0 °F - 64.9 °F 62% 29.97 in 10.0 mi North 11.5 mph - N/A   Mostly Cloudy
6:57 PM 79.0 °F - 64.0 °F 60% 29.99 in 10.0 mi NNE 15.0 mph - N/A   Overcast
7:30 PM - - - N/A% - - North - - N/A   Unknown
7:57 PM 79.0 °F - 64.9 °F 62% 30.00 in 9.0 mi North 10.4 mph - N/A   Mostly Cloudy
8:18 PM 75.2 °F - 66.2 °F 73% 30.02 in 6.2 mi North 11.5 mph - N/A   Overcast
8:29 PM 75.2 °F - 66.2 °F 73% 30.02 in 6.2 mi North 10.4 mph - N/A   Mostly Cloudy
8:57 PM 75.2 °F - 66.0 °F 73% 30.01 in 10.0 mi North 10.4 mph - N/A   Mostly Cloudy
9:57 PM 73.4 °F - 64.9 °F 75% 30.02 in 10.0 mi North 8.1 mph - N/A   Partly Cloudy
10:57 PM 75.9 °F - 64.0 °F 67% 30.02 in 9.0 mi NNE 11.5 mph - N/A   Scattered Clouds
11:57 PM 74.8 °F - 63.0 °F 66% 30.02 in 9.0 mi North 8.1 mph - N/A   Scattered Clouds